EW8016 Weather Reports


Display with metric or nautical units.
time (UTC)temp
F
wind
direction
speed
MPH
gust
MPH
rain 1hr
in
rain 24hr
in
rain mn
in
humidity
%
barometer
mb
20260901191503 62 0 0.0 0.0 0.00 0.01 0.01 82 1020.4
20260901191003 62 0 0.0 0.0 0.00 0.01 0.01 80 1020.4
20260901190503 62 0 0.0 0.0 0.00 0.01 0.01 80 1020.4
20260901190217 62 0 0.0 0.0 0.00 0.01 0.01 80 1020.3
20260901185503 63 0 0.0 0.0 0.00 0.02 0.01 79 1020.4
20260901185217 63 0 0.0 0.0 0.00 0.02 0.01 78 1020.5
20260901184718 64 0 0.0 0.0 0.00 0.04 0.01 77 1020.4
20260901184003 64 0 0.0 0.0 0.00 0.04 0.01 76 1020.3
20260901183503 65 0 0.0 0.0 0.00 0.04 0.01 74 1020.3
20260901183003 65 0 0.0 0.0 0.00 0.04 0.01 74 1020.4
20260901182718 65 303 0.0 1.0 0.00 0.04 0.01 74 1020.3
20260901182003 66 303 0.0 1.0 0.00 0.04 0.01 74 1020.2
20260901181718 66 303 0.0 1.0 0.00 0.04 0.01 73 1020.3
20260901181003 66 303 1.0 3.0 0.00 0.04 0.01 73 1020.3
20260901180718 66 301 1.0 4.0 0.00 0.04 0.01 72 1020.3
20260901180003 66 305 2.0 4.0 0.00 0.04 0.01 71 1020.2
20260901175503 67 306 3.0 5.0 0.00 0.04 0.01 71 1020.2
20260901175217 67 306 3.0 5.0 0.00 0.04 0.01 70 1020.2
20260901174718 67 307 3.0 5.0 0.00 0.04 0.01 70 1020.3
20260901174217 67 309 3.0 7.0 0.00 0.04 0.01 69 1020.2
20260901173503 68 324 3.0 8.0 0.00 0.04 0.01 68 1020.2
20260901173003 68 314 3.0 8.0 0.00 0.04 0.01 68 1020.2
20260901172718 69 310 3.0 8.0 0.00 0.04 0.01 67 1020.1
20260901172003 69 302 3.0 7.0 0.00 0.04 0.01 67 1020.1
20260901171718 69 306 3.0 7.0 0.00 0.04 0.01 67 1020.1
20260901171003 69 307 3.0 7.0 0.00 0.04 0.01 66 1020.1
20260901170503 69 295 3.0 7.0 0.00 0.04 0.01 64 1020.1
20260901170003 70 281 3.0 7.0 0.00 0.04 0.01 64 1020.1
20260901165503 70 281 4.0 7.0 0.00 0.04 0.01 64 1020.1
20260901165217 70 291 4.0 11.0 0.00 0.04 0.01 64 1020.0
20260901164717 69 307 4.0 11.0 0.00 0.04 0.01 64 1020.1
20260901164216 70 307 3.0 8.0 0.00 0.04 0.01 63 1020.0
20260901163503 70 288 3.0 8.0 0.00 0.04 0.01 62 1020.0
20260901163216 70 290 4.0 8.0 0.00 0.04 0.01 62 1020.0
20260901162503 70 299 4.0 9.0 0.00 0.04 0.01 63 1020.0
20260901162003 70 307 5.0 10.0 0.00 0.04 0.01 62 1019.9
20260901161503 70 308 5.0 11.0 0.00 0.04 0.01 61 1020.0
20260901161003 71 299 5.0 11.0 0.00 0.04 0.01 61 1019.9
20260901160503 71 286 4.0 9.0 0.00 0.04 0.01 60 1019.8
20260901160003 70 290 5.0 11.0 0.00 0.04 0.01 61 1019.8
20260901155503 71 305 5.0 11.0 0.00 0.04 0.01 60 1019.8
20260901155003 71 312 5.0 11.0 0.00 0.04 0.01 60 1019.7
20260901154504 71 304 5.0 11.0 0.00 0.04 0.01 61 1019.8
20260901154003 71 307 6.0 13.0 0.00 0.04 0.01 60 1019.8
20260901153503 71 295 6.0 13.0 0.00 0.04 0.01 60 1019.9
20260901153003 71 278 6.0 12.0 0.00 0.04 0.01 59 1019.8
20260901152503 72 286 6.0 12.0 0.00 0.04 0.01 57 1019.9
20260901152003 72 296 4.0 10.0 0.00 0.04 0.01 57 1019.8
20260901151503 72 302 5.0 10.0 0.00 0.04 0.01 56 1019.8
20260901151003 72 293 6.0 11.0 0.00 0.04 0.01 55 1019.7
20260901150503 73 287 6.0 12.0 0.00 0.04 0.01 54 1019.7
20260901150003 73 277 6.0 12.0 0.00 0.04 0.01 52 1019.7
20260901145503 73 271 7.0 13.0 0.00 0.04 0.01 51 1019.7
20260901145003 73 274 6.0 13.0 0.00 0.04 0.01 52 1019.7
20260901144503 73 271 4.0 10.0 0.00 0.04 0.01 53 1019.7
20260901144004 73 274 5.0 10.0 0.00 0.04 0.01 55 1019.6
20260901143503 72 273 6.0 13.0 0.00 0.04 0.01 56 1019.7
20260901143003 72 269 6.0 13.0 0.00 0.04 0.01 55 1019.6
20260901142719 71 269 5.0 12.0 0.00 0.04 0.01 56 1019.6
20260901142005 71 284 6.0 12.0 0.00 0.04 0.01 57 1019.7
20260901141719 71 286 5.0 10.0 0.00 0.04 0.01 57 1019.7
20260901141003 71 282 6.0 11.0 0.00 0.04 0.01 57 1019.7
20260901140503 71 275 6.0 11.0 0.00 0.04 0.01 57 1019.7
20260901140003 71 268 5.0 11.0 0.00 0.04 0.01 59 1019.7
20260901135504 70 279 6.0 12.0 0.00 0.04 0.01 60 1019.7
20260901135003 71 293 7.0 14.0 0.00 0.04 0.01 58 1019.7
20260901134503 71 298 6.0 14.0 0.00 0.04 0.01 57 1019.7
20260901134003 72 292 7.0 12.0 0.00 0.04 0.01 56 1019.7
20260901133504 72 289 8.0 17.0 0.00 0.05 0.01 56 1019.6
20260901133217 72 285 8.0 17.0 0.00 0.07 0.01 56 1019.5
20260901132505 71 267 7.0 16.0 0.00 0.07 0.01 60 1019.4
20260901132003 71 266 6.0 16.0 0.00 0.09 0.01 59 1019.4
20260901131503 71 277 7.0 12.0 0.00 0.09 0.01 58 1019.5
20260901131219 71 278 7.0 12.0 0.00 0.09 0.01 58 1019.5
20260901130505 72 286 7.0 14.0 0.00 0.09 0.01 57 1019.5
20260901130005 72 289 8.0 14.0 0.00 0.09 0.01 58 1019.4
20260901125718 72 289 8.0 15.0 0.00 0.09 0.01 60 1019.5
20260901125219 73 289 9.0 15.0 0.00 0.09 0.01 58 1019.5
20260901124503 73 300 8.0 16.0 0.00 0.09 0.01 59 1019.4
20260901124003 72 298 7.0 15.0 0.00 0.09 0.01 59 1019.4
20260901123503 72 291 6.0 14.0 0.00 0.09 0.01 59 1019.3
20260901123005 72 286 5.0 11.0 0.00 0.09 0.01 61 1019.5
20260901122503 72 284 6.0 13.0 0.00 0.09 0.01 62 1019.4
20260901122005 71 293 7.0 15.0 0.00 0.09 0.01 62 1019.4
20260901121505 72 289 8.0 15.0 0.00 0.09 0.01 62 1019.4
20260901121005 72 287 8.0 15.0 0.00 0.09 0.01 62 1019.4
20260901120720 71 288 8.0 15.0 0.00 0.09 0.01 62 1019.4
20260901120003 71 285 8.0 18.0 0.00 0.09 0.01 63 1019.3
20260901115718 70 286 8.0 18.0 0.00 0.09 0.01 64 1019.3
20260901115003 71 285 9.0 17.0 0.00 0.09 0.01 62 1019.3
20260901114503 70 275 6.0 16.0 0.00 0.09 0.01 64 1019.1
20260901114004 69 269 5.0 13.0 0.00 0.09 0.01 70 1019.1
20260901113504 68 285 7.0 17.0 0.00 0.09 0.01 67 1019.3
20260901113005 69 288 9.0 17.0 0.00 0.09 0.01 66 1019.3
20260901112504 69 281 7.0 15.0 0.00 0.09 0.01 66 1019.3
20260901112003 69 277 5.0 15.0 0.00 0.09 0.01 68 1019.3
20260901111505 69 274 6.0 12.0 0.00 0.09 0.01 70 1019.1
20260901111003 69 280 6.0 15.0 0.01 0.09 0.01 69 1019.2
20260901110503 70 285 6.0 15.0 0.01 0.09 0.01 69 1019.1
20260901110216 70 282 5.0 15.0 0.01 0.09 0.01 68 1019.2
20260901105719 70 271 4.0 11.0 0.01 0.09 0.01 74 1019.2
20260901105003 69 239 4.0 12.0 0.01 0.09 0.01 76 1019.2
20260901104503 68 236 5.0 12.0 0.01 0.09 0.01 78 1019.3
20260901104005 67 246 5.0 11.0 0.01 0.09 0.01 78 1019.3
20260901103719 67 244 5.0 10.0 0.01 0.09 0.01 79 1019.3
20260901103004 67 258 5.0 11.0 0.01 0.09 0.01 79 1019.4
20260901102505 67 255 5.0 11.0 0.01 0.09 0.01 82 1019.3
20260901102006 66 259 4.0 9.0 0.01 0.12 0.01 86 1019.4
20260901101506 65 274 4.0 9.0 0.01 0.12 0.01 86 1019.3
20260901101003 65 283 4.0 8.0 0.00 0.11 0.00 86 1019.3
20260901100503 65 292 3.0 7.0 0.00 0.11 0.00 87 1019.3
20260901100006 65 286 2.0 6.0 0.00 0.11 0.00 87 1019.4
20260901095503 65 285 3.0 6.0 0.00 0.11 0.00 88 1019.3
20260901095003 65 286 3.0 6.0 0.00 0.11 0.00 88 1019.2
20260901094506 65 282 3.0 7.0 0.00 0.11 0.00 89 1019.3
20260901094003 65 277 3.0 7.0 0.00 0.11 0.00 89 1019.2
20260901093719 65 283 3.0 9.0 0.00 0.11 0.00 89 1019.2
20260901093006 65 274 4.0 9.0 0.00 0.11 0.00 88 1019.3
20260901092503 66 250 4.0 9.0 0.00 0.11 0.00 88 1019.2
20260901092005 65 241 4.0 9.0 0.00 0.11 0.00 88 1019.1
20260901091503 65 261 4.0 8.0 0.00 0.11 0.00 89 1019.2
20260901091005 65 268 4.0 10.0 0.00 0.11 0.00 90 1019.2
20260901090505 65 256 4.0 10.0 0.00 0.11 0.00 91 1019.1
20260901090005 65 242 3.0 8.0 0.00 0.11 0.00 92 1019.1
20260901085505 65 233 3.0 9.0 0.00 0.11 0.00 93 1019.2
20260901085005 65 236 3.0 9.0 0.00 0.11 0.00 93 1019.0
20260901084504 65 250 2.0 6.0 0.00 0.11 0.00 94 1019.0
20260901084005 64 263 2.0 7.0 0.00 0.14 0.00 94 1018.9
20260901083505 64 240 3.0 8.0 0.00 0.14 0.00 94 1019.0
20260901083003 64 228 2.0 8.0 0.00 0.14 0.00 94 1019.1
20260901082503 64 199 2.0 8.0 0.00 0.14 0.00 95 1018.9
20260901082217 64 202 3.0 8.0 0.00 0.14 0.00 95 1018.9
20260901081503 64 205 2.0 5.0 0.00 0.14 0.00 95 1018.7
20260901081003 63 215 1.0 4.0 0.00 0.14 0.00 95 1018.7
20260901080503 63 223 2.0 5.0 0.00 0.14 0.00 95 1018.6
20260901080217 63 229 2.0 5.0 0.00 0.14 0.00 95 1018.6
20260901075718 63 235 2.0 7.0 0.00 0.14 0.00 95 1018.5
20260901075004 63 232 3.0 7.0 0.00 0.14 0.00 95 1018.6
20260901074718 63 230 3.0 7.0 0.00 0.14 0.00 95 1018.5
20260901074003 63 228 3.0 7.0 0.00 0.14 0.00 95 1018.5
20260901073718 63 233 3.0 7.0 0.00 0.14 0.00 96 1018.5
20260901073005 63 237 3.0 7.0 0.00 0.14 0.00 96 1018.4
20260901072503 63 234 3.0 7.0 0.00 0.14 0.00 96 1018.4
20260901072217 63 229 2.0 6.0 0.00 0.14 0.00 96 1018.3
20260901071718 63 227 2.0 5.0 0.00 0.14 0.00 97 1018.3
20260901071219 62 241 2.0 8.0 0.00 0.14 0.00 97 1018.2
20260901070720 62 236 3.0 8.0 0.00 0.14 0.00 97 1018.2
20260901070005 62 232 3.0 9.0 0.00 0.14 0.00 97 1018.1
20260901065503 62 220 2.0 9.0 0.00 0.14 0.00 97 1018.2
20260901065217 62 205 2.0 6.0 0.00 0.14 0.00 97 1018.2
20260901064718 61 184 3.0 6.0 0.00 0.14 0.00 97 1018.1
20260901064005 61 169 2.0 8.0 0.00 0.14 0.00 97 1018.0
20260901063505 61 175 2.0 6.0 0.00 0.14 0.00 98 1017.9
20260901063003 60 179 1.0 5.0 0.00 0.14 0.00 97 1017.9
20260901062503 60 172 2.0 6.0 0.00 0.14 0.00 97 1017.9
20260901062219 60 173 2.0 6.0 0.00 0.14 0.00 97 1017.9
20260901061504 60 194 1.0 5.0 0.00 0.14 0.00 97 1017.8
20260901061219 60 196 1.0 4.0 0.00 0.14 0.00 97 1017.7
20260901060718 60 197 1.0 4.0 0.00 0.14 0.00 97 1017.7
20260901060220 59 198 1.0 4.0 0.00 0.14 0.00 97 1017.7
20260901055505 59 213 1.0 4.0 0.00 0.14 0.00 97 1017.6
20260901055005 59 226 1.0 4.0 0.00 0.14 0.00 97 1017.7
20260901054718 59 226 1.0 4.0 0.00 0.14 0.00 97 1017.6
20260901054220 59 216 1.0 4.0 0.00 0.14 0.00 97 1017.6
20260901053506 58 191 0.0 3.0 0.00 0.14 0.00 97 1017.6
20260901053005 58 0 0.0 0.0 0.00 0.14 0.00 97 1017.6
20260901052504 58 236 0.0 1.0 0.00 0.14 0.00 97 1017.6
20260901052004 58 236 0.0 1.0 0.00 0.14 0.00 97 1017.6
20260901051717 58 236 0.0 2.0 0.00 0.14 0.00 97 1017.5
20260901051218 58 236 0.0 2.0 0.00 0.14 0.00 97 1017.4
20260901050505 58 236 0.0 3.0 0.00 0.14 0.00 97 1017.4
20260901050003 58 236 1.0 3.0 0.00 0.14 0.00 97 1017.4
20260901045504 58 236 1.0 4.0 0.00 0.14 0.00 97 1017.2
20260901045003 58 236 1.0 4.0 0.00 0.14 0.00 97 1017.2
20260901044505 58 235 1.0 3.0 0.00 0.14 0.00 97 1017.2
20260901044003 58 235 1.0 3.0 0.00 0.14 0.00 97 1017.3
20260901043503 58 235 1.0 3.0 0.00 0.14 0.00 97 1017.2
20260901043005 58 235 1.0 3.0 0.00 0.14 0.00 96 1017.1
20260901042506 58 235 1.0 3.0 0.00 0.14 0.00 96 1017.1
20260901042005 58 235 0.0 2.0 0.00 0.14 0.00 96 1017.0
20260901041717 58 235 0.0 3.0 0.00 0.14 0.00 96 1016.9
20260901041006 58 235 1.0 3.0 0.00 0.14 0.00 96 1017.0
20260901040503 58 235 1.0 5.0 0.00 0.14 0.00 96 1017.0
20260901040003 59 223 1.0 5.0 0.00 0.14 0.00 96 1017.0
20260901035717 59 216 2.0 5.0 0.00 0.14 0.00 96 1017.0
20260901035005 59 198 1.0 3.0 0.00 0.14 0.00 96 1016.9
20260901034505 59 202 1.0 3.0 0.00 0.14 0.00 96 1016.9
20260901034005 59 201 1.0 4.0 0.00 0.14 0.00 96 1016.9
20260901033719 59 183 1.0 4.0 0.00 0.14 0.00 96 1016.9
20260901033005 59 157 1.0 3.0 0.00 0.14 0.00 96 1016.9
20260901032504 59 193 1.0 4.0 0.00 0.14 0.00 96 1016.9
20260901032003 59 214 1.0 4.0 0.00 0.14 0.00 96 1016.8
20260901031505 59 208 1.0 5.0 0.00 0.14 0.00 96 1016.8
20260901031219 59 216 1.0 5.0 0.00 0.14 0.00 96 1016.8
20260901030503 59 235 1.0 5.0 0.00 0.14 0.00 96 1016.6
20260901030003 59 225 1.0 5.0 0.00 0.14 0.00 96 1016.7
20260901025503 59 207 1.0 3.0 0.00 0.14 0.00 96 1016.7
20260901025005 59 200 1.0 3.0 0.00 0.14 0.00 96 1016.7
20260901024503 59 200 1.0 3.0 0.00 0.14 0.00 95 1016.6
20260901024217 59 200 1.0 3.0 0.00 0.14 0.00 96 1016.5
20260901023503 59 200 1.0 3.0 0.00 0.14 0.00 96 1016.6
20260901023005 59 200 0.0 3.0 0.00 0.14 0.00 96 1016.5
20260901022503 59 0 0.0 0.0 0.00 0.14 0.00 95 1016.6
20260901022003 59 0 0.0 0.0 0.00 0.14 0.00 95 1016.6
20260901021718 59 0 0.0 0.0 0.00 0.14 0.00 95 1016.6
20260901021006 59 215 1.0 3.0 0.00 0.14 0.00 95 1016.7
20260901020505 59 215 1.0 3.0 0.00 0.14 0.00 95 1016.6
20260901020003 59 215 0.0 2.0 0.00 0.14 0.00 95 1016.7
20260901015503 59 215 0.0 2.0 0.00 0.14 0.00 95 1016.5
20260901015003 59 205 0.0 3.0 0.00 0.14 0.00 95 1016.5
20260901014503 60 205 1.0 3.0 0.00 0.14 0.00 95 1016.5
20260901014004 60 201 1.0 4.0 0.00 0.14 0.00 95 1016.4
20260901013506 60 186 1.0 4.0 0.00 0.14 0.00 95 1016.4
20260901013217 60 170 1.0 4.0 0.00 0.14 0.00 95 1016.3
20260901012503 60 173 1.0 5.0 0.00 0.14 0.00 95 1016.4
20260901012003 60 181 2.0 5.0 0.00 0.14 0.00 95 1016.4
20260901011718 60 180 2.0 5.0 0.00 0.14 0.00 95 1016.4
20260901011008 60 170 1.0 5.0 0.00 0.14 0.00 95 1016.4
20260901010718 60 170 2.0 5.0 0.00 0.14 0.00 95 1016.4
20260901010219 60 173 1.0 5.0 0.00 0.14 0.00 95 1016.3
20260901005720 60 167 2.0 5.0 0.00 0.14 0.00 95 1016.3
20260901005004 60 170 2.0 5.0 0.00 0.14 0.00 95 1016.3
20260901004503 60 177 1.0 5.0 0.00 0.14 0.00 95 1016.3
20260901004003 60 183 1.0 7.0 0.00 0.14 0.00 95 1016.3
20260901003717 60 176 1.0 7.0 0.00 0.14 0.00 95 1016.3
20260901003003 60 184 2.0 7.0 0.00 0.14 0.00 95 1016.2
20260901002505 60 192 2.0 7.0 0.00 0.14 0.00 95 1016.1
20260901002003 60 179 2.0 6.0 0.00 0.14 0.00 95 1016.2
20260901001503 60 178 2.0 6.0 0.00 0.14 0.00 95 1016.1
20260901001005 60 187 2.0 5.0 0.00 0.14 0.00 95 1016.2
20260901000503 60 187 2.0 6.0 0.00 0.14 0.00 95 1016.2
20260901000003 59 209 2.0 6.0 0.00 0.14 0.00 95 1016.2
20260831235505 59 216 2.0 6.0 0.00 0.14 0.00 95 1016.2
20260831235005 59 215 2.0 5.0 0.00 0.14 0.00 95 1016.2
20260831234717 59 221 2.0 4.0 0.00 0.14 0.00 95 1016.1
20260831234218 59 202 1.0 4.0 0.00 0.14 0.00 95 1016.2
20260831233503 59 183 2.0 5.0 0.00 0.14 0.00 95 1016.2
20260831233008 59 177 1.0 4.0 0.00 0.14 0.00 94 1016.2
20260831232503 59 198 1.0 4.0 0.00 0.14 0.00 94 1016.1
20260831232006 58 226 1.0 3.0 0.00 0.14 0.00 94 1016.0
20260831231505 58 221 1.0 4.0 0.00 0.14 0.00 94 1016.1
20260831231003 58 216 1.0 4.0 0.00 0.14 0.00 94 1016.0
20260831230504 58 224 1.0 4.0 0.00 0.14 0.00 94 1016.1
20260831230005 58 223 1.0 5.0 0.00 0.14 0.00 94 1016.1
20260831225505 59 221 1.0 5.0 0.00 0.14 0.00 94 1016.0
20260831225218 59 218 1.0 5.0 0.00 0.14 0.00 94 1016.1
20260831224503 59 170 1.0 5.0 0.00 0.14 0.00 94 1016.0
20260831224218 59 172 1.0 5.0 0.00 0.14 0.00 94 1015.9
20260831223503 59 205 1.0 5.0 0.00 0.14 0.00 94 1015.9
20260831223005 59 200 0.0 3.0 0.00 0.14 0.00 94 1016.0
20260831222504 59 221 0.0 3.0 0.00 0.14 0.00 94 1015.9
20260831222003 59 216 1.0 4.0 0.00 0.14 0.00 94 1016.0
20260831221505 59 222 2.0 5.0 0.00 0.14 0.00 94 1016.0
20260831221218 59 224 2.0 5.0 0.00 0.14 0.00 94 1015.9
20260831220505 59 229 2.0 7.0 0.00 0.14 0.00 94 1015.8
20260831220005 59 236 2.0 7.0 0.00 0.14 0.00 94 1015.8
20260831215503 59 235 1.0 5.0 0.00 0.14 0.14 93 1015.8
20260831215005 59 225 2.0 4.0 0.00 0.14 0.14 93 1015.8
20260831214503 59 228 2.0 4.0 0.00 0.14 0.14 93 1015.8
20260831214003 59 230 1.0 4.0 0.00 0.14 0.14 93 1015.7
20260831213506 59 226 1.0 4.0 0.00 0.14 0.14 93 1015.7
20260831213005 59 233 2.0 6.0 0.00 0.14 0.14 93 1015.6
20260831212505 59 243 1.0 6.0 0.00 0.14 0.14 93 1015.7
20260831212003 59 249 1.0 5.0 0.00 0.14 0.14 92 1015.6
20260831211503 60 242 1.0 3.0 0.00 0.14 0.14 93 1015.5
20260831211217 60 203 1.0 3.0 0.00 0.14 0.14 93 1015.5
20260831210503 60 153 1.0 3.0 0.00 0.14 0.14 93 1015.4
20260831210221 60 164 1.0 3.0 0.00 0.14 0.14 93 1015.4
20260831205505 60 250 1.0 3.0 0.00 0.14 0.14 93 1015.3
20260831205003 60 236 1.0 4.0 0.00 0.14 0.14 92 1015.2
20260831204503 60 230 2.0 4.0 0.00 0.14 0.14 92 1015.2
20260831204006 60 224 2.0 4.0 0.00 0.14 0.14 92 1015.1
20260831203504 60 214 2.0 5.0 0.00 0.14 0.14 92 1015.0
20260831203004 60 218 2.0 5.0 0.00 0.14 0.14 92 1015.1
20260831202505 60 229 2.0 4.0 0.00 0.14 0.14 92 1015.0
20260831202003 60 226 1.0 4.0 0.00 0.14 0.14 91 1015.0
20260831201504 60 223 1.0 4.0 0.00 0.14 0.14 91 1014.9
20260831201005 61 227 2.0 5.0 0.00 0.14 0.14 91 1014.9
20260831200503 61 229 2.0 5.0 0.00 0.14 0.14 91 1014.9
20260831200004 61 234 2.0 5.0 0.00 0.14 0.14 90 1014.7
20260831195503 61 233 2.0 5.0 0.01 0.14 0.14 90 1014.6
20260831195003 62 234 2.0 6.0 0.02 0.14 0.14 90 1014.6
20260831194503 62 235 3.0 8.0 0.03 0.14 0.14 90 1014.6
20260831194005 62 232 2.0 8.0 0.03 0.14 0.14 90 1014.5
20260831193503 62 245 2.0 6.0 0.03 0.14 0.14 90 1014.4
20260831193219 62 243 3.0 7.0 0.03 0.14 0.14 90 1014.3
20260831192504 62 241 3.0 8.0 0.03 0.14 0.14 89 1014.3
20260831192005 62 249 3.0 8.0 0.03 0.14 0.14 89 1014.3